Home   Weather   Surgut   Past weeks

Flag for Russia Past Weather in Surgut, Russia — Yesterday and Last 2 Weeks

25 °F

Passing clouds.

Feels Like: 13 °F
Forecast: 30 / 35 °F
Wind: 13 mph from Northwest

Location: Surgut Airport

Current Time: Oct 25, 2016 at 6:32:50 AM

Latest Report: Oct 25, 2016 at 6:00 AM

Visibility: 4 mi

Pressure: 30.39 "Hg

Humidity: 80%

Dew Point: 19 °F

Location of SurgutLocation

Past Weather in Surgut — Graph


Surgut Temperature Yesterday

Maximum temperature yesterday: 36 °F (at 8:30 AM)
Minimum temperature yesterday: 25 °F (at 9:00 PM)
Average temperature yesterday: 32 °F

High & Low Weather Summary for the Past Weeks

High36 °F (Oct 10, 11:30 AM)100% (Oct 10, 5:00 AM)30.77 "Hg (Oct 10, 5:00 AM)
Low7 °F (Oct 22, 1:30 AM)59% (Oct 24, 6:00 PM)29.71 "Hg (Oct 18, 3:30 AM)
Average27 °F94%30.18 "Hg
* Reported Oct 10 5:00 AM — Oct 25 5:30 AM, Surgut, Weather by CustomWeather, © 2016

Note: Actual official high and low records may vary slightly from our data, if they occured in-between our weather recording intervals... More about our weather records


Surgut Weather History for the Previous 24 Hours

Scroll right to see more
Time TempWeatherWind HumidityBarometerVisibility
5:30 AM
Tue, Oct 25
25 °FPassing clouds.10 mph80%30.36 "Hg4 mi
5:00 AM23 °FPassing clouds.13 mph86%30.36 "Hg4 mi
4:30 AM23 °FPassing clouds.10 mph86%30.36 "Hg4 mi
4:00 AM23 °FPassing clouds.13 mph86%30.36 "Hg4 mi
3:30 AM25 °FPassing clouds.13 mph80%30.36 "Hg4 mi
3:00 AM23 °FPassing clouds.13 mph86%30.36 "Hg4 mi
2:30 AM25 °FPassing clouds.13 mph80%30.36 "Hg4 mi
2:00 AM25 °FSnow flurries. Passing clouds.13 mph80%30.36 "Hg4 mi
1:30 AM27 °FPassing clouds.13 mph69%30.36 "Hg4 mi
1:00 AM25 °FPassing clouds.10 mph80%30.36 "Hg4 mi
12:30 AM25 °FPassing clouds.10 mph80%30.36 "Hg4 mi
12:00 AM27 °FPassing clouds.13 mph74%30.36 "Hg4 mi
11:30 PM
Mon, Oct 24
25 °FPassing clouds.10 mph80%30.33 "Hg4 mi
11:00 PM25 °FSnow flurries. Passing clouds.10 mph80%30.33 "Hg4 mi
10:30 PM25 °FPassing clouds.10 mph80%30.33 "Hg4 mi
10:00 PM25 °FPassing clouds.8 mph80%30.33 "Hg4 mi
9:30 PM25 °FClear.8 mph74%30.33 "Hg4 mi
9:00 PM25 °FClear.8 mph74%30.33 "Hg4 mi
8:30 PM27 °FClear.8 mph69%30.30 "Hg4 mi
8:00 PM27 °FClear.8 mph69%30.30 "Hg4 mi
7:30 PM27 °FClear.10 mph69%30.30 "Hg4 mi
7:00 PM28 °FClear.10 mph59%30.27 "Hg4 mi
6:30 PM28 °FClear.8 mph64%30.27 "Hg4 mi
6:00 PM30 °FClear.10 mph59%30.27 "Hg4 mi
5:30 PM30 °FPassing clouds.8 mph64%30.24 "Hg4 mi
5:00 PM30 °FPassing clouds.10 mph64%30.24 "Hg4 mi
4:30 PM30 °FPassing clouds.10 mph64%30.24 "Hg4 mi
4:00 PM30 °FScattered clouds.10 mph69%30.24 "Hg4 mi
3:30 PM32 °FScattered clouds.20 mph64%30.24 "Hg4 mi
3:00 PM32 °FScattered clouds.15 mph64%30.21 "Hg4 mi
2:30 PM32 °FScattered clouds.20 mph64%30.21 "Hg4 mi
2:00 PM34 °FScattered clouds.17 mph70%30.21 "Hg4 mi
1:30 PM34 °FScattered clouds.20 mph81%30.18 "Hg4 mi
1:00 PM34 °FSnow flurries. Scattered clouds.20 mph87%30.18 "Hg4 mi
12:30 PM34 °FSnow flurries. Broken clouds.20 mph100%30.18 "Hg4 mi
12:00 PM36 °FSnow flurries. Broken clouds.15 mph100%30.18 "Hg4 mi
11:30 AM36 °FBroken clouds.10 mph93%30.18 "Hg4 mi
11:00 AM36 °FBroken clouds.13 mph100%30.18 "Hg4 mi
10:30 AM36 °FSnow flurries. Broken clouds.13 mph100%30.18 "Hg4 mi
10:00 AM36 °FSnow flurries. Broken clouds.13 mph100%30.18 "Hg4 mi
9:30 AM36 °FBroken clouds.13 mph100%30.18 "Hg4 mi
9:00 AM36 °FBroken clouds.20 mph100%30.18 "Hg4 mi
8:30 AM36 °FBroken clouds.20 mph100%30.18 "Hg4 mi
8:00 AM34 °FSnow flurries. Broken clouds.13 mph100%30.18 "Hg4 mi
7:30 AM34 °FSnow flurries. Broken clouds.15 mph100%30.21 "Hg4 mi
7:00 AM34 °FSnow flurries. Partly cloudy.13 mph100%30.21 "Hg4 mi
6:30 AM34 °FSnow flurries. Partly cloudy.13 mph100%30.21 "Hg4 mi
6:00 AM34 °FSnow flurries. Partly cloudy.13 mph100%30.21 "Hg4 mi
Weather by CustomWeather, © 2016

See weather overviewHow to use our weather pages